Regional Weather Roundup
Issued by NWS Bismarck, ND

Home | Current Version | Previous Version | Text Only | Print | Product List | Glossary On
Versions: 1 2 3 4 5 6 7 8 9 10 11 12 13 14 15 16 17 18 19 20 21 22 23 24 25 26 27 28 29 30 31 32 33 34 35 36 37 38 39 40 41 42 43 44 45 46 47 48 49 50
000
ASUS43 KBIS 291510
RWRBIS

NWR BROADCAST TEXT
NATIONAL WEATHER SERVICE BISMARCK ND
1000 AM CDT FRI AUG 29 2014

NOTE: "FAIR" INDICATES FEW OR NO CLOUDS BELOW 12,000 FEET WITH NO
SIGNIFICANT WEATHER AND/OR OBSTRUCTIONS TO VISIBILITY.


CITY           SKY/WX    TMP DP  RH WIND       PRES   REMARKS
WILLISTON      CLOUDY    62  55  77 N16       29.96R
MINOT          CLOUDY    63  59  87 NW17G25   29.85R
MINOT AFB      CLOUDY    63  60  91 N14G25    29.85R
BISMARCK       MOSUNNY   69  61  75 NW13      29.85R
DICKINSON      PTSUNNY   62  56  80 W10       29.92R
GARRISON         N/A     62  59  90 W9        29.87R
HETTINGER ARPT MOSUNNY   64  53  67 NW15      29.94F
JAMESTOWN      CLOUDY    65  64  97 W7        29.78R
BEACH            N/A     59  59 100 NW18      30.00R
CARRINGTON     CLOUDY    66  66 100 W13       29.79R
CROSBY         CLOUDY    59  57  94 N13       29.97R
HARVEY         CLOUDY    63  63 100 W13       29.80R FOG
HAZEN          LGT RAIN  61  57  88 NW12      29.89S
LINTON         CLOUDY    63  63 100 NW12      29.83R FOG
MANDAN         FAIR      68  59  73 NW17G23   29.86R
OAKES          FOG       64  64 100 SW5       29.79S VSB 3/4
RUGBY          CLOUDY    64  64 100 NW10      29.79R
STANLEY        CLOUDY    59  59 100 N13G20    29.92R
TIOGA          CLOUDY    59  59 100 N13       29.97S
WATFORD CITY   PTSUNNY   59  57  94 NW13      29.93R
$$

CITY           SKY/WX    TMP DP  RH WIND       PRES   REMARKS
GRAND FORKS    CLOUDY    66  64  93 S5        29.75F
GRAND FORKS AF CLOUDY    66  66 100 S3        29.77R
DEVILS LAKE    CLOUDY    68  61  77 W10       29.74R
FARGO          CLOUDY    69  64  84 W5        29.77R
CANDO          CLOUDY    66  64  94 W8        29.77R
CAVALIER       CLOUDY    66  66 100 S5        29.75S
GRAFTON        FOG       64  64 100 S6        29.75S VSB 1
GWINNER        CLOUDY    66  66 100 NW3       29.80S
LANGDON        CLOUDY    66  64  94 W9        29.77R
ROLLA          PTSUNNY   59  59 100 N24G30    29.82R
WALHALLA         N/A     68  68 100 SW3       29.75S
$$

CITY           SKY/WX    TMP DP  RH WIND       PRES   REMARKS
ABERDEEN       CLOUDY    65  65 100 NW10      29.80R
MOBRIDGE       CLOUDY    65  65 100 NW6       29.81R
BUFFALO          N/A     67  52  58 NW20G30   29.93R
RAPID CITY     MOSUNNY   71  53  52 N36G44    29.97R
GLASGOW        CLOUDY    57  54  89 N10       30.05R
SIDNEY         PTSUNNY   61  57  88 NW14      29.99R
WOLF POINT     CLOUDY    60  54  80 N7        30.02S
GLENDIVE       CLOUDY    59  57  94 NW12      30.02S
MILES CITY     CLOUDY    61  55  81 NW14      30.05R
BAKER          CLOUDY    61  55  81 NW14      30.02R
$$

CITY           SKY/WX    TMP DP  RH WIND       PRES   REMARKS
BILLINGS       MOSUNNY   61  53  75 S5        30.11R
GREAT FALLS    SUNNY     55  50  83 E12       30.07S
REGINA         MOSUNNY   59  54  82 N5        30.02
$$



USA.gov is the U.S. government's official web portal to all federal, state and local government web resources and services.